Overview Statistics Trail Chart Weather Telemetry Raw packets
 

This is the latest recevied weather packets stored in our database for station/object K0QED. If no packets are shown the sender has not sent any weather packets the latest 10 day(s).

<< 8 9 10 11 12 13 14 >>
Time Temp. Humidity Pressure Rain* Wind** Luminosity Snow
1788568588 25° C 33% 1023.6 hPa 0 mm - 12 W/m² -
1788568284 25.56° C 32% 1023.5 hPa 0 mm - 15 W/m² -
1788567979 25.56° C 32% 1023.7 hPa 0 mm - 17 W/m² -
1788567674 25.56° C 32% 1023.6 hPa 0 mm - 17 W/m² -
1788567369 26.11° C 32% 1023.4 hPa 0 mm - 22 W/m² -
1788567069 26.11° C 31% 1023.7 hPa 0 mm - 21 W/m² -
1788566764 26.67° C 31% 1023.7 hPa 0 mm - 21 W/m² -
1788566460 26.67° C 30% 1023.4 hPa 0 mm - 26 W/m² -
1788566154 27.22° C 30% 1023.4 hPa 0 mm - 32 W/m² -
1788565854 27.78° C 29% 1023.2 hPa 0 mm - 35 W/m² -
1788565549 27.78° C 29% 1023.7 hPa 0 mm - 52 W/m² -
1788565244 28.33° C 29% 1023.5 hPa 0 mm - 158 W/m² -
1788564939 28.33° C 29% 1023.4 hPa 0 mm - 195 W/m² -
1788564636 28.33° C 29% 1023.5 hPa 0 mm - 217 W/m² -
1788564332 28.33° C 28% 1023.4 hPa 0 mm - 202 W/m² -
1788564028 28.89° C 28% 1023.4 hPa 0 mm - 238 W/m² -
1788563724 28.89° C 27% 1023.2 hPa 0 mm - 234 W/m² -
1788563419 28.33° C 29% 1023.2 hPa 0 mm - 235 W/m² -
1788563118 28.89° C 28% 1023.1 hPa 0 mm - 249 W/m² -
1788562814 28.89° C 28% 1023.2 hPa 0 mm - 280 W/m² -
1788562511 29.44° C 27% 1023 hPa 0 mm - 290 W/m² -
1788562210 30° C 27% 1023.2 hPa 0 mm - 331 W/m² -
1788561906 30° C 27% 1023 hPa 0 mm - 314 W/m² -
1788561606 29.44° C 27% 1023.1 hPa 0 mm - 327 W/m² -
1788561305 30° C 27% 1023.1 hPa 0 mm - 343 W/m² -

* Rain latest hour (hover to see other rain measurements)
** Current wind speed in m/s (hover to see current wind gust speed)